Weather in Plesetsk

Russia / Arkhangel'skaya Oblast'     62°42′33″N   40°17′06″E
temp.,
°C
wind,
m/s
gust,
m/s
humid.,
%
clouds,
%
prec.,
mm/h
press.,
hPa
HPBL,
m
10 may, mon
mon1000:00+1sw25922 0.0 101795
03:000wsw22850 0.0 102024
06:00+3sw25771 0.0 1022157
09:00+9sw35535 0.0 1023658
12:00+12sw453227 0.0 10241905
15:00+13ssw4633100 0.0 10242109
18:00+12s484396 0.0 10231531
21:00+10ssw51152100 0.0 10241085
11 may, tue
tue1100:00+9ssw51364100 0.0 1023718
03:00+9ssw51475100 0.1 1024568
06:00+8ssw41380100 0.3 1024470
09:00+10ssw41382100 0.4 1024569
12:00+11sw4128194 0.1 1025591
15:00+20wsw595592 0.1 10241372
18:00+19sw495688 0.0 10251293
21:00+13ssw398030 0.0 1025169
12 may, wed
wed1200:00+12sw311806 0.0 1026227
03:00+10sw3988100 0.0 1027183
06:00+12sw398072 0.0 1028255
09:00+18sw365446 0.0 1027687
12:00+22wsw35405 0.0 10271414
15:00+24sw34370 0.0 10261667
18:00+23ssw24450 0.0 1025665
21:00+16ssw22674 0.0 102641
13 may, thu
thu1300:00+14s22711 0.0 102619
03:00+12s22800 0.0 102632
06:00+15ssw25730 0.0 1026146
09:00+20ssw35520 0.0 1025682
12:00+24ssw35400 0.0 10241751
15:00+25ssw353354 0.0 10222682
18:00+23sw354410 0.0 1021958
21:00+17s286832 0.0 1021154
14 may, fri
fri1400:00+15ssw248029 0.0 102073
03:00+14s22857 0.0 101914
06:00+16s268282 0.4 1019253
09:00+16s3680100 0.6 1018533
12:00+19sw3562100 0.0 10171248
15:00+19ssw346292 0.9 10171117
18:00+18ssw357452 1.4 1016811
21:00+14sw23905 1.7 101564